Temp_Advection
nan nan nan nan nan nan nan nan nan nan nan nan nan nan nan nan nan nan nan nan nan nan nan nan nan nan nan nan nan nan nan nan
nan 1 1 1 0 0 0 0 0 0 0 0 0 0 -0 -0 -0 -0 -0 -0 -0 -0 -0 -0 -0 -0 -0 -0 -0 -0 -0 nan
nan 1 1 0 0 0 0 0 0 0 0 0 0 0 -0 -0 -0 -0 -0 -0 -0 -0 -0 -0 -0 -0 -0 -0 -1 -1 -0 nan
nan 1 1 0 0 0 0 0 0 0 -0 0 0 0 0 -0 -0 -0 -0 -0 -0 -0 -0 -0 -0 -0 -0 -0 -0 -1 -1 nan
nan 0 0 0 0 0 0 0 0 -0 0 0 0 0 0 -0 -0 -0 -0 -0 -0 -0 -0 -0 -0 -0 -1 -1 -0 -0 -1 nan
nan 0 0 0 1 1 0 0 0 0 0 0 0 0 0 -0 -0 -0 -0 -0 -0 -0 -0 -0 -1 -1 -1 -1 -1 -1 -1 nan
nan 1 1 1 0 0 0 0 0 0 0 0 0 0 0 -0 -0 -0 -0 -0 -0 -0 -1 -1 -1 -1 -1 -1 -1 -0 0 nan
nan 1 1 1 0 0 1 1 0 0 0 0 0 0 0 -0 -0 -0 -0 -0 -0 -1 -1 -1 -1 -1 -0 -0 0 0 0 nan
nan 0 0 0 1 1 1 0 0 0 0 0 0 0 0 -0 -0 -0 -0 -0 -0 -1 -1 -1 -0 -0 -0 -0 -0 -0 -0 nan
nan 0 0 1 1 1 0 0 0 0 0 0 0 0 0 -0 -0 -0 -0 -0 -0 -0 -0 -0 -0 -0 -0 -0 -0 -0 -0 nan
nan 1 1 1 1 0 0 0 0 0 0 0 0 0 0 0 -0 -0 -0 -0 -0 -0 -0 -0 -0 -0 -0 -0 -0 -0 -0 nan
nan 1 1 1 1 0 0 0 0 1 1 0 0 0 0 0 -0 -0 -0 -0 -0 -0 -0 -0 -0 -0 -0 -0 -0 -0 -0 nan
nan 0 0 0 0 1 0 0 1 1 0 0 0 0 0 0 -0 -0 -0 -0 -0 -0 -0 -0 -0 -0 -0 -0 -0 -0 -0 nan
nan -0 0 0 1 0 0 0 1 1 0 0 0 0 0 0 0 -0 -0 -0 -0 -0 -0 -0 -0 -0 -0 -0 -0 -0 -0 nan
nan -0 0 -0 0 -0 -0 1 1 0 0 0 0 0 0 0 0 0 -0 -0 -0 -0 0 0 -0 -0 -0 -0 -0 -0 -0 nan
nan -0 -1 -1 -0 -0 0 1 0 -0 1 0 0 0 0 0 0 0 -0 -0 -0 0 0 -0 -0 -0 0 -0 -0 -0 -0 nan
nan -2 -1 -0 -0 0 1 2 1 1 1 1 0 0 0 0 0 0 -0 0 0 0 0 0 -0 0 0 -0 -0 -0 -0 nan
nan -1 1 1 1 2 2 1 0 0 1 1 0 0 0 0 0 0 0 0 0 0 0 0 -0 0 -0 -1 -0 -0 -0 nan
nan nan nan nan nan nan nan nan nan nan nan nan nan nan nan nan nan nan nan nan nan nan nan nan nan nan nan nan nan nan nan nan
Wind_Speed
27 23 18 14 12 10 8 7 7 6 5 3 2 1 2 3 4 6 7 9 10 11 12 13 15 16 18 18 20 21 23 26
27 23 20 16 13 11 9 8 8 8 6 4 3 1 1 2 3 5 6 8 9 10 12 14 16 17 18 20 21 21 21 23
31 27 23 18 13 12 10 9 9 8 7 5 3 2 1 4 6 8 9 10 10 11 11 13 14 15 16 18 20 21 21 21
38 33 27 22 17 13 10 10 10 11 9 7 5 3 2 4 6 8 9 10 11 11 12 14 16 17 18 18 18 18 18 15
40 36 31 24 19 15 13 13 13 12 11 8 5 3 2 3 4 6 8 9 11 13 15 17 18 19 18 18 18 18 17 17
45 39 32 25 20 17 17 16 14 12 10 8 6 4 2 1 3 5 7 10 12 14 16 17 18 18 18 18 16 16 15 14
44 39 32 28 23 21 19 16 15 13 10 9 7 5 2 1 3 5 8 9 11 12 14 15 16 16 17 19 17 16 13 12
46 43 40 33 28 25 22 18 14 12 11 10 8 5 3 2 3 6 7 8 10 12 13 14 15 16 16 16 15 12 12 12
47 46 43 36 31 28 23 19 16 13 11 9 7 5 3 2 3 5 7 9 11 13 13 13 13 13 14 14 14 14 13 13
45 46 43 38 33 27 23 20 16 13 12 10 7 5 3 2 4 4 7 9 10 11 11 10 11 12 13 12 13 13 12 12
41 45 43 36 30 26 23 19 15 13 12 10 8 6 4 3 3 4 5 7 9 9 10 10 10 11 12 12 12 12 11 11
38 44 42 35 30 27 23 20 17 15 13 11 9 7 5 3 2 2 4 6 7 8 9 9 10 10 10 11 11 10 10 9
36 42 40 35 30 27 24 20 18 16 13 11 10 8 5 3 2 2 2 4 6 7 8 9 9 8 8 8 8 8 8 8
36 40 39 35 31 28 23 20 18 17 15 14 11 7 4 2 1 1 3 4 6 7 8 8 7 6 6 7 8 8 8 9
39 41 39 35 31 28 25 22 21 19 17 14 11 7 5 3 1 2 2 4 5 6 5 6 4 4 5 7 8 7 8 9
41 44 40 37 35 30 27 25 24 21 18 15 12 9 7 5 4 4 2 3 3 3 3 3 3 5 6 7 6 7 7 8
38 42 42 40 39 35 30 30 28 25 19 18 14 11 9 8 6 4 2 2 1 1 1 1 3 6 8 7 6 7 9 9
36 42 46 42 36 34 37 34 27 24 21 18 16 14 12 9 8 5 3 2 2 2 1 1 2 4 7 7 6 7 9 9
32 39 43 39 37 38 36 32 29 23 22 21 19 16 14 11 9 7 5 5 4 2 2 2 2 5 6 7 7 8 9 12
Wind_Direction
203 203 202 200 193 200 207 215 232 235 241 252 268 310 334 342 333 329 329 324 321 317 315 313 310 310 310 310 310 311 311 307
204 204 204 200 198 201 197 205 227 226 221 212 209 229 281 326 342 344 340 337 332 325 317 311 306 305 305 302 300 303 308 311
203 202 202 202 205 202 203 201 213 215 214 214 213 224 298 340 351 354 350 344 337 332 329 328 328 326 321 316 312 308 308 317
202 200 200 202 203 209 204 196 191 194 199 202 208 222 299 339 345 343 342 342 340 339 338 337 335 332 328 326 324 324 324 319
210 202 199 200 202 201 195 187 178 180 185 187 196 222 277 320 336 351 356 358 1 0 357 352 346 338 330 325 323 323 324 329
210 206 201 199 202 200 192 187 186 185 184 182 187 196 211 337 13 10 8 10 9 4 359 354 348 344 341 338 335 336 337 336
211 205 199 198 197 198 193 191 190 185 181 180 181 182 166 68 20 16 18 16 10 5 4 4 4 4 6 4 360 353 350 344
208 198 195 195 195 194 195 193 191 184 184 182 177 169 146 76 25 26 25 18 13 14 13 13 13 17 18 12 6 -0 352 351
210 201 195 194 194 194 193 192 194 191 187 185 178 171 149 95 47 33 22 13 13 15 12 11 8 9 11 5 358 5 2 356
206 200 196 194 193 191 193 196 195 195 195 190 183 178 160 105 65 39 20 15 9 6 4 1 2 359 358 357 353 354 356 356
198 199 195 193 192 189 192 197 201 202 199 194 187 180 158 121 85 37 19 8 0 358 356 353 356 354 352 354 347 345 343 351
196 196 192 189 189 191 192 197 204 206 202 196 187 176 160 125 93 49 16 3 357 357 348 340 343 347 351 350 342 341 348 355
193 194 188 187 190 192 194 198 204 209 204 196 185 181 168 139 104 46 354 4 350 354 341 334 342 340 342 351 351 358 358 0
190 190 189 189 192 193 194 201 203 206 201 197 194 193 181 171 155 22 337 354 344 351 342 325 323 339 1 14 16 15 7 12
191 188 191 193 193 195 198 201 201 201 198 196 200 199 200 200 233 273 303 349 348 341 310 307 324 12 32 29 17 15 12 15
193 190 191 196 197 197 201 199 200 199 199 198 202 205 201 205 223 255 316 330 321 306 298 317 349 46 52 37 22 24 21 18
198 197 194 201 202 200 198 200 194 196 191 199 199 203 202 208 217 228 264 282 279 240 272 308 335 52 48 41 44 39 36 30
198 211 209 203 201 201 199 196 192 189 197 197 204 198 202 204 208 212 202 197 187 158 190 251 24 62 62 65 63 52 47 45
225 217 217 210 204 206 203 199 190 196 196 199 202 200 199 199 203 196 189 171 169 167 189 212 77 80 83 81 67 57 52 51
Height
1500 1505 1507 1509 1510 1510 1510 1510 1511 1511 1512 1513 1514 1514 1515 1514 1514 1514 1514 1513 1512 1511 1510 1510 1509 1508 1507 1506 1505 1504 1501 1499
1497 1500 1504 1505 1507 1508 1507 1508 1508 1509 1510 1511 1512 1513 1513 1513 1513 1513 1512 1511 1510 1509 1508 1508 1507 1506 1504 1503 1502 1501 1500 1498
1490 1494 1499 1502 1504 1506 1506 1505 1506 1507 1508 1509 1510 1510 1511 1511 1511 1511 1510 1509 1508 1507 1506 1505 1503 1502 1501 1499 1497 1496 1496 1495
1482 1487 1493 1497 1499 1502 1503 1504 1505 1506 1506 1507 1508 1509 1510 1510 1509 1508 1508 1506 1506 1505 1504 1502 1500 1498 1497 1495 1494 1492 1492 1492
1479 1483 1488 1492 1495 1498 1499 1500 1502 1504 1505 1505 1506 1508 1508 1508 1508 1507 1505 1504 1503 1501 1499 1498 1498 1497 1496 1494 1492 1491 1489 1489
1470 1477 1484 1488 1492 1495 1497 1498 1500 1501 1502 1503 1504 1505 1506 1506 1506 1505 1504 1502 1500 1499 1498 1497 1497 1497 1494 1492 1489 1488 1488 1488
1464 1472 1480 1483 1487 1490 1494 1496 1498 1499 1500 1501 1501 1502 1503 1504 1504 1504 1503 1501 1500 1499 1498 1497 1496 1496 1494 1491 1490 1490 1490 1487
1455 1464 1470 1476 1481 1485 1490 1493 1496 1497 1498 1499 1500 1500 1501 1501 1502 1503 1503 1502 1500 1498 1497 1496 1496 1495 1494 1494 1493 1491 1491 1488
1447 1455 1462 1470 1476 1482 1487 1490 1493 1495 1497 1498 1498 1498 1498 1499 1500 1501 1501 1501 1499 1498 1497 1497 1496 1494 1492 1493 1494 1491 1490 1488
1441 1450 1458 1465 1471 1476 1483 1488 1491 1493 1495 1496 1497 1497 1496 1497 1499 1499 1500 1499 1499 1499 1498 1498 1495 1494 1492 1491 1492 1492 1489 1487
1438 1446 1454 1462 1468 1473 1479 1486 1489 1492 1494 1494 1495 1496 1495 1495 1496 1498 1499 1498 1499 1499 1500 1499 1495 1493 1492 1490 1491 1491 1489 1485
1437 1443 1452 1460 1466 1470 1475 1481 1487 1491 1492 1492 1493 1494 1496 1495 1496 1497 1497 1498 1499 1498 1498 1498 1496 1494 1492 1490 1492 1490 1488 1485
1437 1442 1450 1456 1462 1467 1472 1477 1482 1488 1490 1491 1492 1493 1494 1493 1495 1495 1497 1495 1498 1495 1498 1498 1494 1494 1493 1490 1491 1488 1488 1486
1433 1441 1447 1453 1460 1465 1470 1474 1479 1485 1486 1488 1489 1492 1493 1493 1493 1494 1497 1495 1497 1494 1495 1497 1497 1493 1491 1490 1489 1487 1488 1486
1427 1434 1441 1449 1456 1462 1466 1470 1475 1480 1481 1484 1488 1488 1490 1493 1494 1495 1496 1494 1494 1494 1496 1496 1497 1492 1489 1488 1490 1488 1488 1485
1424 1427 1435 1443 1449 1454 1459 1463 1468 1474 1476 1479 1485 1486 1487 1489 1492 1496 1493 1493 1493 1496 1495 1495 1496 1492 1487 1487 1490 1489 1487 1484
1424 1427 1426 1433 1440 1445 1451 1456 1460 1467 1470 1475 1479 1483 1484 1487 1490 1492 1492 1494 1494 1495 1495 1494 1496 1490 1486 1488 1491 1490 1487 1485
1417 1426 1425 1426 1435 1442 1446 1452 1457 1462 1468 1472 1478 1477 1482 1484 1487 1489 1489 1491 1494 1494 1495 1496 1493 1489 1485 1489 1492 1490 1488 1486
1416 1417 1427 1429 1433 1437 1443 1450 1452 1458 1463 1469 1473 1475 1477 1481 1485 1486 1488 1488 1492 1494 1495 1496 1492 1488 1488 1490 1492 1490 1489 1488